DEMNG SAOR-SADF

Flight info

Callsign DEMNG
Flight time N/A
Altitude 7000
Route RYD DCT LYE DCT NIN DCT SNT
Aircraft PA24/L-SDGRY/S

Departure

Time N/A
Airport Villa Reynolds Airport (SAOR)

Arrival

Time 2026-04-24 11:12
Airport San Fernando Airport (SADF)
Time Latitude Longitude Altitude Speed Heading
2026-04-24 10:01 -34.36501 -62.04211 7030 ft 170 kts 99°
2026-04-24 10:01 -34.36730 -62.02809 7030 ft 169 kts 99°
2026-04-24 10:02 -34.36960 -62.01408 7030 ft 169 kts 99°
2026-04-24 10:02 -34.37188 -62.00008 7030 ft 169 kts 99°
2026-04-24 10:02 -34.37418 -61.98608 7030 ft 169 kts 99°
2026-04-24 10:02 -34.37646 -61.97208 7029 ft 169 kts 99°
2026-04-24 10:03 -34.37871 -61.95829 7032 ft 169 kts 99°
2026-04-24 10:03 -34.38099 -61.94431 7032 ft 169 kts 99°
2026-04-24 10:03 -34.38326 -61.93033 7033 ft 169 kts 99°
2026-04-24 10:03 -34.38553 -61.91638 7029 ft 168 kts 99°
2026-04-24 10:04 -34.38783 -61.90253 7029 ft 168 kts 98°
2026-04-24 10:04 -34.39011 -61.88869 7029 ft 168 kts 98°
2026-04-24 10:04 -34.39236 -61.87482 7030 ft 168 kts 98°
2026-04-24 10:04 -34.39459 -61.86097 7030 ft 168 kts 98°
2026-04-24 10:05 -34.39683 -61.84711 7033 ft 168 kts 98°
2026-04-24 10:05 -34.39906 -61.83325 7033 ft 168 kts 98°
2026-04-24 10:05 -34.40129 -61.81939 7033 ft 168 kts 98°
2026-04-24 10:05 -34.40353 -61.80550 7033 ft 168 kts 98°
2026-04-24 10:06 -34.40575 -61.79164 7033 ft 168 kts 98°
2026-04-24 10:06 -34.41023 -61.76390 7033 ft 168 kts 98°
2026-04-24 10:06 -34.41247 -61.75003 7032 ft 168 kts 98°
2026-04-24 10:07 -34.41471 -61.73614 7033 ft 168 kts 98°
2026-04-24 10:07 -34.41691 -61.72246 7032 ft 168 kts 98°
2026-04-24 10:07 -34.41915 -61.70857 7032 ft 168 kts 98°
2026-04-24 10:07 -34.42138 -61.69471 7032 ft 168 kts 98°
2026-04-24 10:08 -34.42361 -61.68084 7035 ft 168 kts 98°
2026-04-24 10:08 -34.42584 -61.66696 7035 ft 168 kts 98°
2026-04-24 10:08 -34.42806 -61.65307 7035 ft 168 kts 98°
2026-04-24 10:08 -34.43029 -61.63917 7035 ft 168 kts 98°
2026-04-24 10:09 -34.43250 -61.62532 7035 ft 168 kts 98°
2026-04-24 10:09 -34.43473 -61.61144 7035 ft 168 kts 98°
2026-04-24 10:09 -34.43694 -61.59758 7035 ft 168 kts 98°
2026-04-24 10:09 -34.43916 -61.58370 7035 ft 168 kts 98°
2026-04-24 10:10 -34.44138 -61.56982 7035 ft 168 kts 98°
2026-04-24 10:10 -34.44359 -61.55594 7035 ft 168 kts 98°
2026-04-24 10:10 -34.44581 -61.54206 7036 ft 168 kts 98°
2026-04-24 10:10 -34.44803 -61.52817 7035 ft 168 kts 98°
2026-04-24 10:11 -34.45024 -61.51427 7038 ft 168 kts 98°
2026-04-24 10:11 -34.45245 -61.50036 7038 ft 168 kts 98°
2026-04-24 10:11 -34.45465 -61.48644 7038 ft 168 kts 98°
2026-04-24 10:11 -34.45686 -61.47254 7038 ft 168 kts 98°
2026-04-24 10:12 -34.45904 -61.45881 7038 ft 168 kts 98°
2026-04-24 10:12 -34.46124 -61.44489 7038 ft 168 kts 98°
2026-04-24 10:12 -34.46344 -61.43099 7038 ft 168 kts 98°
2026-04-24 10:12 -34.46565 -61.41704 7038 ft 168 kts 98°
2026-04-24 10:13 -34.46786 -61.40311 7035 ft 168 kts 98°
2026-04-24 10:13 -34.47006 -61.38920 7035 ft 168 kts 98°
2026-04-24 10:13 -34.47227 -61.37528 7035 ft 168 kts 98°
2026-04-24 10:13 -34.47447 -61.36133 7035 ft 168 kts 98°
2026-04-24 10:14 -34.47667 -61.34743 7038 ft 168 kts 98°
2026-04-24 10:14 -34.47885 -61.33350 7034 ft 168 kts 98°
2026-04-24 10:14 -34.48105 -61.31966 7037 ft 167 kts 98°
2026-04-24 10:14 -34.48322 -61.30585 7038 ft 167 kts 98°
2026-04-24 10:15 -34.48539 -61.29200 7038 ft 167 kts 98°
2026-04-24 10:15 -34.48756 -61.27817 7038 ft 167 kts 98°
2026-04-24 10:15 -34.48973 -61.26433 7038 ft 167 kts 98°
2026-04-24 10:15 -34.49190 -61.25049 7038 ft 167 kts 98°
2026-04-24 10:16 -34.49406 -61.23668 7041 ft 167 kts 98°
2026-04-24 10:16 -34.49623 -61.22284 7041 ft 167 kts 98°
2026-04-24 10:16 -34.49839 -61.20899 7041 ft 167 kts 98°
2026-04-24 10:16 -34.50055 -61.19517 7041 ft 167 kts 98°
2026-04-24 10:17 -34.50268 -61.18153 7043 ft 167 kts 98°
2026-04-24 10:17 -34.50485 -61.16767 7043 ft 167 kts 98°
2026-04-24 10:17 -34.50701 -61.15383 7043 ft 167 kts 98°
2026-04-24 10:17 -34.50916 -61.14001 7043 ft 167 kts 98°
2026-04-24 10:18 -34.51132 -61.12617 7043 ft 167 kts 98°
2026-04-24 10:18 -34.51347 -61.11231 7043 ft 167 kts 98°
2026-04-24 10:18 -34.51562 -61.09850 7043 ft 167 kts 98°
2026-04-24 10:18 -34.51778 -61.08466 7043 ft 167 kts 98°
2026-04-24 10:19 -34.51992 -61.07083 7044 ft 167 kts 98°
2026-04-24 10:19 -34.52207 -61.05700 7044 ft 167 kts 98°
2026-04-24 10:19 -34.52423 -61.04316 7044 ft 167 kts 97°
2026-04-24 10:19 -34.52634 -61.02941 7042 ft 165 kts 98°
2026-04-24 10:20 -34.52846 -61.01570 7046 ft 165 kts 98°
2026-04-24 10:20 -34.53058 -61.00200 7047 ft 166 kts 98°
2026-04-24 10:20 -34.53271 -60.98822 7047 ft 167 kts 98°
2026-04-24 10:20 -34.53484 -60.97442 7046 ft 166 kts 98°
2026-04-24 10:21 -34.53698 -60.96063 7049 ft 166 kts 98°
2026-04-24 10:21 -34.53908 -60.94699 7049 ft 167 kts 98°
2026-04-24 10:21 -34.54047 -60.93291 7050 ft 166 kts 85°
2026-04-24 10:21 -34.53810 -60.91954 7050 ft 163 kts 71°
2026-04-24 10:22 -34.53528 -60.90622 7046 ft 163 kts 72°
2026-04-24 10:22 -34.53259 -60.89286 7045 ft 163 kts 73°
2026-04-24 10:22 -34.52989 -60.87952 7045 ft 163 kts 72°
2026-04-24 10:22 -34.52716 -60.86620 7046 ft 163 kts 72°
2026-04-24 10:23 -34.52441 -60.85289 7048 ft 163 kts 72°
2026-04-24 10:23 -34.52165 -60.83960 7049 ft 162 kts 72°
2026-04-24 10:23 -34.51888 -60.82632 7049 ft 162 kts 72°
2026-04-24 10:23 -34.51611 -60.81305 7049 ft 162 kts 72°
2026-04-24 10:24 -34.51334 -60.79977 7049 ft 162 kts 72°
2026-04-24 10:24 -34.51057 -60.78650 7049 ft 162 kts 72°
2026-04-24 10:24 -34.50781 -60.77323 7049 ft 162 kts 72°
2026-04-24 10:24 -34.50503 -60.75993 7048 ft 162 kts 72°
2026-04-24 10:25 -34.50226 -60.74666 7046 ft 162 kts 72°
2026-04-24 10:25 -34.49946 -60.73349 7048 ft 161 kts 72°
2026-04-24 10:25 -34.49671 -60.72031 7048 ft 161 kts 72°
2026-04-24 10:25 -34.49397 -60.70709 7049 ft 161 kts 72°
2026-04-24 10:26 -34.49123 -60.69390 7052 ft 161 kts 72°
2026-04-24 10:26 -34.48851 -60.68088 7051 ft 161 kts 72°
2026-04-24 10:26 -34.48576 -60.66768 7052 ft 161 kts 72°
2026-04-24 10:26 -34.48300 -60.65449 7052 ft 161 kts 72°
2026-04-24 10:27 -34.48024 -60.64127 7052 ft 161 kts 72°
2026-04-24 10:27 -34.47748 -60.62810 7052 ft 161 kts 72°
2026-04-24 10:27 -34.47472 -60.61490 7052 ft 162 kts 72°
2026-04-24 10:27 -34.47195 -60.60171 7052 ft 161 kts 72°
2026-04-24 10:28 -34.46917 -60.58850 7049 ft 161 kts 72°
2026-04-24 10:28 -34.46641 -60.57530 7049 ft 161 kts 72°
2026-04-24 10:28 -34.46364 -60.56213 7049 ft 161 kts 72°
2026-04-24 10:28 -34.46088 -60.54896 7049 ft 161 kts 72°
2026-04-24 10:29 -34.45815 -60.53597 7051 ft 161 kts 72°
2026-04-24 10:29 -34.45538 -60.52280 7051 ft 161 kts 72°
2026-04-24 10:29 -34.45259 -60.50962 7052 ft 161 kts 72°
2026-04-24 10:29 -34.44982 -60.49644 7052 ft 161 kts 72°
2026-04-24 10:30 -34.44704 -60.48328 7052 ft 161 kts 72°
2026-04-24 10:30 -34.44426 -60.47009 7052 ft 161 kts 72°
2026-04-24 10:30 -34.44148 -60.45694 7047 ft 161 kts 72°
2026-04-24 10:30 -34.43959 -60.44809 7050 ft 161 kts 72°
2026-04-24 10:31 -34.43684 -60.43513 7051 ft 161 kts 72°
2026-04-24 10:31 -34.43407 -60.42201 7052 ft 161 kts 72°
2026-04-24 10:31 -34.43129 -60.40887 7052 ft 161 kts 72°
2026-04-24 10:31 -34.42852 -60.39575 7052 ft 161 kts 72°
2026-04-24 10:32 -34.42575 -60.38262 7054 ft 161 kts 72°
2026-04-24 10:32 -34.42296 -60.36948 7054 ft 161 kts 72°
2026-04-24 10:32 -34.42017 -60.35632 7056 ft 161 kts 72°
2026-04-24 10:32 -34.41740 -60.34319 7054 ft 161 kts 72°
2026-04-24 10:33 -34.41461 -60.33007 7051 ft 161 kts 72°
2026-04-24 10:33 -34.41181 -60.31692 7052 ft 161 kts 72°
2026-04-24 10:33 -34.40906 -60.30395 7051 ft 161 kts 72°
2026-04-24 10:33 -34.40627 -60.29081 7051 ft 161 kts 72°
2026-04-24 10:34 -34.40344 -60.27749 7054 ft 161 kts 72°
2026-04-24 10:34 -34.40069 -60.26455 7054 ft 161 kts 72°
2026-04-24 10:34 -34.39789 -60.25142 7054 ft 161 kts 72°
2026-04-24 10:34 -34.39508 -60.23830 7054 ft 161 kts 72°
2026-04-24 10:35 -34.39229 -60.22516 7054 ft 161 kts 72°
2026-04-24 10:35 -34.38948 -60.21203 7054 ft 161 kts 72°
2026-04-24 10:35 -34.38668 -60.19892 7054 ft 161 kts 72°
2026-04-24 10:35 -34.38388 -60.18580 7054 ft 161 kts 72°
2026-04-24 10:36 -34.38108 -60.17267 7048 ft 161 kts 72°
2026-04-24 10:36 -34.37826 -60.15957 7051 ft 161 kts 72°
2026-04-24 10:36 -34.37545 -60.14646 7051 ft 161 kts 72°
2026-04-24 10:36 -34.37264 -60.13332 7051 ft 161 kts 72°
2026-04-24 10:37 -34.36984 -60.12019 7054 ft 161 kts 72°
2026-04-24 10:37 -34.36703 -60.10710 7054 ft 161 kts 72°
2026-04-24 10:37 -34.36423 -60.09400 7053 ft 161 kts 72°
2026-04-24 10:37 -34.36142 -60.08094 7053 ft 160 kts 72°
2026-04-24 10:38 -34.35862 -60.06787 7054 ft 160 kts 72°
2026-04-24 10:38 -34.35581 -60.05480 7054 ft 160 kts 72°
2026-04-24 10:38 -34.35305 -60.04194 7054 ft 160 kts 72°
2026-04-24 10:38 -34.35021 -60.02874 7054 ft 160 kts 72°
2026-04-24 10:39 -34.34744 -60.01586 7054 ft 160 kts 72°
2026-04-24 10:39 -34.34464 -60.00282 7054 ft 160 kts 72°
2026-04-24 10:39 -34.34183 -59.98979 7054 ft 160 kts 72°
2026-04-24 10:39 -34.33901 -59.97677 7054 ft 160 kts 72°
2026-04-24 10:40 -34.33620 -59.96373 7057 ft 160 kts 72°
2026-04-24 10:40 -34.33339 -59.95071 7057 ft 160 kts 72°
2026-04-24 10:40 -34.33058 -59.93767 7057 ft 160 kts 72°
2026-04-24 10:40 -34.32777 -59.92464 7057 ft 160 kts 72°
2026-04-24 10:41 -34.32495 -59.91158 7054 ft 160 kts 72°
2026-04-24 10:41 -34.32213 -59.89854 7054 ft 160 kts 72°
2026-04-24 10:41 -34.31930 -59.88549 7048 ft 160 kts 72°
2026-04-24 10:41 -34.31645 -59.87244 7053 ft 160 kts 72°
2026-04-24 10:42 -34.31362 -59.85939 7054 ft 160 kts 72°
2026-04-24 10:42 -34.31079 -59.84634 7054 ft 160 kts 72°
2026-04-24 10:42 -34.30796 -59.83326 7054 ft 161 kts 72°
2026-04-24 10:42 -34.30513 -59.82021 7055 ft 161 kts 72°
2026-04-24 10:43 -34.30229 -59.80714 7057 ft 161 kts 72°
2026-04-24 10:43 -34.29946 -59.79405 7057 ft 161 kts 72°
2026-04-24 10:43 -34.29661 -59.78095 7057 ft 161 kts 72°
2026-04-24 10:43 -34.29381 -59.76803 7057 ft 161 kts 72°
2026-04-24 10:44 -34.29097 -59.75496 7057 ft 161 kts 72°
2026-04-24 10:44 -34.28812 -59.74190 7057 ft 161 kts 72°
2026-04-24 10:44 -34.28527 -59.72882 7057 ft 161 kts 72°
2026-04-24 10:44 -34.28243 -59.71578 7057 ft 161 kts 72°
2026-04-24 10:45 -34.27957 -59.70270 7057 ft 161 kts 72°
2026-04-24 10:45 -34.27673 -59.68966 7057 ft 161 kts 72°
2026-04-24 10:45 -34.27388 -59.67660 7057 ft 161 kts 72°
2026-04-24 10:45 -34.27103 -59.66353 7057 ft 161 kts 72°
2026-04-24 10:46 -34.26817 -59.65049 7057 ft 161 kts 72°
2026-04-24 10:46 -34.26531 -59.63741 7057 ft 161 kts 72°
2026-04-24 10:46 -34.26245 -59.62436 7057 ft 161 kts 72°
2026-04-24 10:46 -34.25959 -59.61129 7057 ft 161 kts 72°
2026-04-24 10:47 -34.25676 -59.59840 7056 ft 161 kts 72°
2026-04-24 10:47 -34.25388 -59.58536 7057 ft 160 kts 72°
2026-04-24 10:47 -34.25102 -59.57233 7057 ft 160 kts 73°
2026-04-24 10:47 -34.24817 -59.55930 7057 ft 160 kts 73°
2026-04-24 10:48 -34.24531 -59.54628 7057 ft 160 kts 73°
2026-04-24 10:48 -34.24246 -59.53325 7057 ft 160 kts 73°
2026-04-24 10:48 -34.23960 -59.52021 7057 ft 160 kts 73°
2026-04-24 10:48 -34.23674 -59.50718 7057 ft 160 kts 73°
2026-04-24 10:49 -34.23388 -59.49415 7060 ft 161 kts 73°
2026-04-24 10:49 -34.23100 -59.48110 7057 ft 161 kts 72°
2026-04-24 10:49 -34.22812 -59.46805 7057 ft 161 kts 72°
2026-04-24 10:49 -34.22527 -59.45501 7056 ft 161 kts 74°
2026-04-24 10:50 -34.22472 -59.44158 7057 ft 161 kts 96°
2026-04-24 10:50 -34.22872 -59.42896 7057 ft 163 kts 121°
2026-04-24 10:50 -34.23496 -59.41741 7056 ft 165 kts 121°
2026-04-24 10:50 -34.24100 -59.40566 7057 ft 165 kts 120°
2026-04-24 10:51 -34.24710 -59.39387 7055 ft 165 kts 121°
2026-04-24 10:51 -34.25325 -59.38213 7055 ft 165 kts 121°
2026-04-24 10:51 -34.25944 -59.37043 7054 ft 165 kts 121°
2026-04-24 10:51 -34.26564 -59.35873 7054 ft 165 kts 121°
2026-04-24 10:52 -34.27184 -59.34703 7057 ft 165 kts 121°
2026-04-24 10:52 -34.27804 -59.33532 7057 ft 165 kts 121°
2026-04-24 10:52 -34.28422 -59.32361 7056 ft 165 kts 121°
2026-04-24 10:52 -34.29030 -59.31209 7053 ft 164 kts 121°
2026-04-24 10:53 -34.29650 -59.30034 7055 ft 163 kts 121°
2026-04-24 10:53 -34.30254 -59.28886 7058 ft 165 kts 121°
2026-04-24 10:53 -34.30868 -59.27717 7057 ft 165 kts 121°
2026-04-24 10:53 -34.31483 -59.26547 7057 ft 165 kts 121°
2026-04-24 10:54 -34.32097 -59.25379 7057 ft 165 kts 121°
2026-04-24 10:54 -34.32712 -59.24208 7057 ft 165 kts 121°
2026-04-24 10:54 -34.33327 -59.23037 7054 ft 165 kts 121°
2026-04-24 10:54 -34.33942 -59.21867 7054 ft 165 kts 121°
2026-04-24 10:55 -34.34556 -59.20696 7057 ft 165 kts 121°
2026-04-24 10:55 -34.35170 -59.19525 7057 ft 165 kts 121°
2026-04-24 10:55 -34.35784 -59.18355 7057 ft 165 kts 121°
2026-04-24 10:55 -34.36399 -59.17183 7057 ft 165 kts 121°
2026-04-24 10:56 -34.37013 -59.16011 7054 ft 165 kts 121°
2026-04-24 10:56 -34.37627 -59.14839 7057 ft 165 kts 121°
2026-04-24 10:56 -34.38241 -59.13666 7057 ft 165 kts 121°
2026-04-24 10:56 -34.38855 -59.12493 7054 ft 165 kts 121°
2026-04-24 10:57 -34.39469 -59.11321 7054 ft 165 kts 121°
2026-04-24 10:57 -34.40082 -59.10148 7054 ft 165 kts 121°
2026-04-24 10:57 -34.40697 -59.08973 7054 ft 165 kts 121°
2026-04-24 10:57 -34.41311 -59.07798 7055 ft 165 kts 121°
2026-04-24 10:58 -34.41917 -59.06639 7054 ft 165 kts 121°
2026-04-24 10:58 -34.42531 -59.05462 7054 ft 165 kts 121°
2026-04-24 10:58 -34.43144 -59.04288 7054 ft 165 kts 121°
2026-04-24 10:58 -34.43757 -59.03115 7061 ft 164 kts 121°
2026-04-24 10:59 -34.44364 -59.01948 7058 ft 163 kts 121°
2026-04-24 10:59 -34.44970 -59.00789 7056 ft 163 kts 121°
2026-04-24 10:59 -34.45573 -58.99636 7013 ft 160 kts 120°
2026-04-24 10:59 -34.46175 -58.98467 6693 ft 168 kts 120°
2026-04-24 11:00 -34.46782 -58.97286 6411 ft 160 kts 120°
2026-04-24 11:00 -34.47373 -58.96141 5968 ft 160 kts 121°
2026-04-24 11:00 -34.47952 -58.95041 5729 ft 149 kts 121°
2026-04-24 11:00 -34.48504 -58.94004 5473 ft 144 kts 121°
2026-04-24 11:01 -34.49042 -58.92987 5182 ft 143 kts 121°
2026-04-24 11:01 -34.49571 -58.91976 4950 ft 139 kts 121°
2026-04-24 11:01 -34.50087 -58.90987 4653 ft 140 kts 121°
2026-04-24 11:01 -34.50610 -58.89984 4367 ft 139 kts 121°
2026-04-24 11:02 -34.51123 -58.88999 4108 ft 138 kts 120°
2026-04-24 11:02 -34.51636 -58.88011 3827 ft 138 kts 120°
2026-04-24 11:02 -34.52145 -58.87034 3569 ft 136 kts 120°
2026-04-24 11:02 -34.52653 -58.86055 3286 ft 137 kts 119°
2026-04-24 11:03 -34.53149 -58.85096 3029 ft 135 kts 119°
2026-04-24 11:03 -34.53647 -58.84132 3093 ft 138 kts 119°
2026-04-24 11:03 -34.54175 -58.83110 3083 ft 147 kts 119°
2026-04-24 11:03 -34.54732 -58.82031 3064 ft 153 kts 120°
2026-04-24 11:04 -34.55303 -58.80929 3069 ft 155 kts 120°
2026-04-24 11:04 -34.55878 -58.79818 3072 ft 156 kts 118°
2026-04-24 11:04 -34.56226 -58.78581 3061 ft 157 kts 92°
2026-04-24 11:04 -34.56144 -58.77286 2983 ft 152 kts 81°
2026-04-24 11:05 -34.56067 -58.75982 2754 ft 158 kts 83°
2026-04-24 11:05 -34.56002 -58.74675 2580 ft 153 kts 83°
2026-04-24 11:05 -34.55930 -58.73380 2314 ft 155 kts 82°
2026-04-24 11:05 -34.55849 -58.72075 2095 ft 154 kts 81°
2026-04-24 11:06 -34.55483 -58.70871 1794 ft 156 kts 49°
2026-04-24 11:06 -34.54701 -58.70010 1522 ft 143 kts 39°
2026-04-24 11:06 -34.54057 -58.69225 1535 ft 120 kts 43°
2026-04-24 11:06 -34.53521 -58.68549 1555 ft 105 kts 42°
2026-04-24 11:07 -34.52617 -58.67488 1565 ft 84 kts 38°
2026-04-24 11:07 -34.52188 -58.67008 1561 ft 84 kts 38°
2026-04-24 11:07 -34.51768 -58.66530 1550 ft 82 kts 39°
2026-04-24 11:08 -34.51362 -58.66052 1547 ft 81 kts 40°
2026-04-24 11:08 -34.50967 -58.65573 1548 ft 80 kts 40°
2026-04-24 11:08 -34.50594 -58.65107 1539 ft 73 kts 40°
2026-04-24 11:08 -34.50207 -58.64668 1387 ft 79 kts 36°
2026-04-24 11:09 -34.49814 -58.64228 1218 ft 79 kts 42°
2026-04-24 11:09 -34.49429 -58.63782 1078 ft 76 kts 40°
2026-04-24 11:09 -34.49046 -58.63327 965 ft 75 kts 38°
2026-04-24 11:09 -34.48657 -58.62864 831 ft 77 kts 39°
2026-04-24 11:10 -34.48280 -58.62409 689 ft 80 kts 45°
2026-04-24 11:10 -34.47875 -58.61970 591 ft 78 kts 41°
2026-04-24 11:10 -34.47485 -58.61491 470 ft 79 kts 46°
2026-04-24 11:10 -34.47114 -58.61018 370 ft 78 kts 44°
2026-04-24 11:11 -34.46741 -58.60568 316 ft 74 kts 46°
2026-04-24 11:11 -34.46370 -58.60146 261 ft 73 kts 32°
2026-04-24 11:11 -34.45995 -58.59729 109 ft 70 kts 46°
2026-04-24 11:11 -34.45681 -58.59358 15 ft 52 kts 44°
2026-04-24 11:12 -34.45479 -58.59117 14 ft 32 kts 45°
2026-04-24 11:12 -34.45385 -58.58992 14 ft 10 kts 53°
2026-04-24 11:12 -34.45388 -58.59016 14 ft 10 kts 221°
2026-04-24 11:12 -34.45473 -58.59113 14 ft 23 kts 224°
2026-04-24 11:13 -34.45595 -58.59257 12 ft 24 kts 225°
2026-04-24 11:13 -34.45695 -58.59293 13 ft 12 kts 150°
2026-04-24 11:13 -34.45746 -58.59258 13 ft 6 kts 151°
2026-04-24 11:13 -34.45806 -58.59216 13 ft 10 kts 149°
2026-04-24 11:14 -34.45848 -58.59186 13 ft 6 kts 149°
2026-04-24 11:14 -34.45887 -58.59152 13 ft 6 kts 101°
2026-04-24 11:14 -34.45872 -58.59149 13 ft 2 kts 324°
2026-04-24 11:14 -34.45869 -58.59151 13 ft 0 kts 325°